timestamp,surface_pressure_avg,surface_temp_avg,battery_voltage,lat,long
2023-12-24 00:09:01+00:00,252.9064,4.6,11.3,47.84626,-54.09684
2023-12-24 00:19:00+00:00,244.453,4.6,11.3,47.84626,-54.09684
2023-12-24 00:29:00+00:00,238.1698,4.6,11.3,47.84626,-54.09684
2023-12-24 00:39:00+00:00,229.7397,4.6,11.3,47.84626,-54.09684
2023-12-24 00:49:00+00:00,222.0298,4.6,11.3,47.84626,-54.09684
2023-12-24 00:59:00+00:00,216.6964,4.6,11.3,47.84626,-54.09684
2023-12-24 01:09:00+00:00,212.4381,4.6,11.3,47.84626,-54.09684
2023-12-24 01:19:00+00:00,206.3548,4.6,11.3,47.84626,-54.09684
2023-12-24 01:29:00+00:00,201.8731,4.67,11.3,47.84626,-54.09684
2023-12-24 01:39:00+00:00,198.3115,4.7,11.3,47.84626,-54.09684
2023-12-24 01:49:00+00:00,194.2148,4.7,11.3,47.84626,-54.09684
2023-12-24 01:59:00+00:00,193.3398,4.7,11.3,47.84626,-54.09684
2023-12-24 02:09:00+00:00,194.7947,4.7,11.3,47.84626,-54.09684
2023-12-24 02:19:00+00:00,194.7664,4.7,11.22,47.84626,-54.09684
2023-12-24 02:29:00+00:00,194.6065,4.7,11.22,47.84626,-54.09684
2023-12-24 02:39:00+00:00,194.6547,4.7,11.22,47.84626,-54.09684
2023-12-24 02:49:00+00:00,194.5748,4.7,11.22,47.84626,-54.09684
2023-12-24 02:59:00+00:00,194.4248,4.7,11.22,47.84626,-54.09684
2023-12-24 03:09:00+00:00,194.7398,4.7,11.22,47.84626,-54.09684
2023-12-24 03:19:00+00:00,195.6747,4.7,11.22,47.84626,-54.09684
2023-12-24 03:29:00+00:00,196.4798,4.69,11.22,47.84626,-54.09684
2023-12-24 03:39:00+00:00,196.9948,4.69,11.22,47.84626,-54.09684
2023-12-24 03:49:00+00:00,199.3798,4.7,11.22,47.84626,-54.09684
2023-12-24 03:59:00+00:00,201.7514,4.7,11.22,47.84626,-54.09684
2023-12-24 04:09:00+00:00,202.5248,4.7,11.22,47.84626,-54.09684
2023-12-24 04:19:00+00:00,207.8465,4.7,11.22,47.84626,-54.09684
2023-12-24 04:29:00+00:00,213.2515,4.7,11.22,47.84626,-54.09684
2023-12-24 04:39:00+00:00,214.7548,4.7,11.22,47.84626,-54.09684
2023-12-24 04:49:00+00:00,217.1281,4.7,11.22,47.84626,-54.09684
2023-12-24 04:59:00+00:00,222.9731,4.7,11.22,47.84626,-54.09684
2023-12-24 05:09:00+00:00,228.0231,4.7,11.22,47.84626,-54.09684
2023-12-24 05:19:00+00:00,231.6981,4.66,11.22,47.84626,-54.09684
2023-12-24 05:29:00+00:00,236.7598,4.6,11.22,47.84626,-54.09684
2023-12-24 05:39:00+00:00,243.2298,4.6,11.22,47.84626,-54.09684
2023-12-24 05:49:00+00:00,247.9864,4.6,11.22,47.84626,-54.09684
2023-12-24 05:59:00+00:00,250.3931,4.5,11.22,47.84626,-54.09684
2023-12-24 06:09:00+00:00,255.1664,4.5,11.22,47.84626,-54.09684
2023-12-24 06:19:00+00:00,261.6347,4.5,11.22,47.84626,-54.09684
2023-12-24 06:29:00+00:00,265.1764,4.58,11.22,47.84626,-54.09684
2023-12-24 06:39:00+00:00,267.9747,4.6,11.22,47.84626,-54.09684
2023-12-24 06:49:00+00:00,276.3764,4.6,11.22,47.84626,-54.09684
2023-12-24 06:59:00+00:00,285.8897,4.65,11.22,47.84626,-54.09684
2023-12-24 07:09:00+00:00,292.14799999999997,4.66,11.22,47.84626,-54.09684
2023-12-24 07:19:01+00:00,299.4847,4.67,11.22,47.84626,-54.09684
2023-12-24 07:29:01+00:00,307.8281,4.67,11.22,47.84626,-54.09684
2023-12-24 07:39:01+00:00,311.9847,4.68,11.22,47.84626,-54.09684
2023-12-24 07:49:01+00:00,315.7796,4.63,11.22,47.84626,-54.09684
2023-12-24 07:59:01+00:00,323.683,4.65,11.22,47.84626,-54.09684
2023-12-24 08:09:01+00:00,328.3597,4.69,11.22,47.84626,-54.09684
2023-12-24 08:19:00+00:00,330.4031,4.66,11.22,47.84626,-54.09684
2023-12-24 08:29:00+00:00,335.6912,4.6,11.22,47.84626,-54.09684
2023-12-24 08:39:00+00:00,341.6846,4.6,11.22,47.84626,-54.09684
2023-12-24 08:49:00+00:00,341.73800000000006,4.62,11.22,47.84626,-54.09684
2023-12-24 08:59:00+00:00,341.6763,4.6,11.22,47.84626,-54.09684
2023-12-24 09:09:00+00:00,345.6413,4.6,11.22,47.84626,-54.09684
2023-12-24 09:19:00+00:00,348.7913,4.6,11.22,47.84626,-54.09684
2023-12-24 09:29:00+00:00,348.0796,4.64,11.22,47.84626,-54.09684
2023-12-24 09:39:00+00:00,347.9813,4.67,11.22,47.84626,-54.09684
2023-12-24 09:49:00+00:00,350.4763,4.68,11.22,47.84626,-54.09684
2023-12-24 09:59:00+00:00,349.858,4.68,11.22,47.84626,-54.09684
2023-12-24 10:09:00+00:00,347.7645,4.68,11.22,47.84626,-54.09684
2023-12-24 10:19:00+00:00,349.1262,4.66,11.22,47.84626,-54.09684
2023-12-24 10:29:00+00:00,349.8146,4.6,11.22,47.84626,-54.09684
2023-12-24 10:39:00+00:00,344.3129,4.6,11.22,47.84626,-54.09684
2023-12-24 10:49:00+00:00,339.858,4.57,11.22,47.84626,-54.09684
2023-12-24 10:59:00+00:00,341.3162,4.5,11.22,47.84626,-54.09684
2023-12-24 11:09:00+00:00,338.5629,4.5,11.22,47.84626,-54.09684
2023-12-24 11:19:00+00:00,330.1063,4.4,11.22,47.84626,-54.09684
2023-12-24 11:29:00+00:00,325.303,4.4,11.22,47.84626,-54.09684
2023-12-24 11:39:00+00:00,323.9764,4.4,11.22,47.84626,-54.09684
2023-12-24 11:49:00+00:00,316.9529,4.4,11.22,47.84626,-54.09684
2023-12-24 11:59:00+00:00,308.3763,4.4,11.22,47.84626,-54.09684
2023-12-24 12:09:00+00:00,302.7864,4.4,11.22,47.84626,-54.09684
2023-12-24 12:19:00+00:00,295.1747,4.4,11.22,47.84626,-54.09684
2023-12-24 12:29:00+00:00,285.388,4.38,11.22,47.84626,-54.09684
2023-12-24 12:39:00+00:00,276.3997,4.36,11.22,47.84626,-54.09684
2023-12-24 12:49:00+00:00,269.89799999999997,4.33,11.22,47.84626,-54.09684
2023-12-24 12:59:00+00:00,260.7514,4.3,11.22,47.84626,-54.09684
2023-12-24 13:09:00+00:00,251.6764,4.35,11.22,47.84626,-54.09684
2023-12-24 13:19:00+00:00,245.9764,4.4,11.22,47.84626,-54.09684
2023-12-24 13:29:00+00:00,241.7897,4.4,11.22,47.84626,-54.09684
2023-12-24 13:39:00+00:00,235.6398,4.4,11.22,47.84626,-54.09684
2023-12-24 13:49:00+00:00,228.4547,4.48,11.22,47.84626,-54.09684
2023-12-24 13:59:00+00:00,222.2515,4.5,11.22,47.84626,-54.09684
2023-12-24 14:09:00+00:00,219.5981,4.4,11.22,47.84626,-54.09684
2023-12-24 14:19:00+00:00,216.9998,4.4,11.22,47.84626,-54.09684
2023-12-24 14:29:00+00:00,213.0048,4.4,11.22,47.84626,-54.09684
2023-12-24 14:39:00+00:00,207.5565,4.4,11.22,47.84626,-54.09684
2023-12-24 14:49:00+00:00,204.6764,4.4,11.22,47.84626,-54.09684
2023-12-24 14:59:00+00:00,203.5147,4.4,11.22,47.84626,-54.09684
2023-12-24 15:09:00+00:00,200.6165,4.4,11.22,47.84626,-54.09684
2023-12-24 15:19:00+00:00,198.4948,4.39,11.22,47.84626,-54.09684
2023-12-24 15:29:00+00:00,198.5498,4.37,11.22,47.84626,-54.09684
2023-12-24 15:39:00+00:00,196.0581,4.3,11.22,47.84626,-54.09684
2023-12-24 15:49:00+00:00,195.1581,4.3,11.22,47.84626,-54.09684
2023-12-24 15:59:00+00:00,196.2181,4.3,11.22,47.84626,-54.09684
2023-12-24 16:09:00+00:00,194.9231,4.3,11.22,47.84626,-54.09684
2023-12-24 16:19:00+00:00,193.5381,4.3,11.22,47.84626,-54.09684
2023-12-24 16:29:00+00:00,193.7982,4.3,11.22,47.84626,-54.09684
2023-12-24 16:39:00+00:00,196.9515,4.3,11.22,47.84626,-54.09684
2023-12-24 16:49:00+00:00,198.6714,4.3,11.22,47.84626,-54.09684
2023-12-24 16:59:00+00:00,198.0381,4.3,11.22,47.84626,-54.09684
2023-12-24 17:09:00+00:00,201.0731,4.3,11.22,47.84626,-54.09684
2023-12-24 17:19:00+00:00,205.9348,4.3,11.22,47.84626,-54.09684
2023-12-24 17:29:00+00:00,209.3948,4.29,11.22,47.84626,-54.09684
2023-12-24 17:39:00+00:00,212.4081,4.2,11.22,47.84626,-54.09684
2023-12-24 17:49:00+00:00,216.6581,4.2,11.22,47.84626,-54.09684
2023-12-24 17:59:00+00:00,220.9164,4.2,11.22,47.84626,-54.09684
2023-12-24 18:09:00+00:00,222.5998,4.2,11.22,47.84626,-54.09684
2023-12-24 18:19:01+00:00,226.4781,4.2,11.22,47.84626,-54.09684
2023-12-24 18:29:01+00:00,230.2748,4.1,11.22,47.84626,-54.09684
2023-12-24 18:39:01+00:00,232.9281,4.09,11.22,47.84626,-54.09684
2023-12-24 18:49:01+00:00,234.5797,4.08,11.22,47.84626,-54.09684
2023-12-24 18:59:01+00:00,241.0864,4.07,11.22,47.84626,-54.09684
2023-12-24 19:09:01+00:00,248.6014,4.06,11.22,47.84626,-54.09684
2023-12-24 19:19:00+00:00,253.0497,4.03,11.22,47.84626,-54.09684
2023-12-24 19:29:00+00:00,256.5764,4.03,11.22,47.84626,-54.09684
2023-12-24 19:39:00+00:00,264.9897,4.07,11.22,47.84626,-54.09684
2023-12-24 19:49:00+00:00,275.4181,4.08,11.22,47.84626,-54.09684
2023-12-24 19:59:00+00:00,281.803,4.1,11.22,47.84626,-54.09684
2023-12-24 20:09:00+00:00,287.4214,4.1,11.22,47.84626,-54.09684
2023-12-24 20:19:00+00:00,296.8614,4.1,11.22,47.84626,-54.09684
2023-12-24 20:29:00+00:00,304.8313,4.1,11.22,47.84626,-54.09684
2023-12-24 20:39:00+00:00,308.6863,4.1,11.22,47.84626,-54.09684
2023-12-24 20:49:00+00:00,312.973,4.1,11.22,47.84626,-54.09684
2023-12-24 20:59:00+00:00,319.3063,4.18,11.22,47.84626,-54.09684
2023-12-24 21:09:00+00:00,324.5197,4.1,11.22,47.84626,-54.09684
2023-12-24 21:19:00+00:00,326.378,4.1,11.22,47.84626,-54.09684
2023-12-24 21:29:00+00:00,329.4796,4.1,11.22,47.84626,-54.09684
2023-12-24 21:39:00+00:00,332.2462,4.1,11.22,47.84626,-54.09684
2023-12-24 21:49:00+00:00,336.3180000000001,4.1,11.22,47.84626,-54.09684
2023-12-24 21:59:00+00:00,336.0947,4.1,11.22,47.84626,-54.09684
2023-12-24 22:09:00+00:00,335.8513,4.1,11.22,47.84626,-54.09684
2023-12-24 22:19:00+00:00,337.0146,4.1,11.22,47.84626,-54.09684
2023-12-24 22:29:00+00:00,337.0746,4.1,11.22,47.84626,-54.09684
2023-12-24 22:39:00+00:00,329.8863,4.1,11.22,47.84626,-54.09684
2023-12-24 22:49:00+00:00,327.6646,4.1,11.22,47.84626,-54.09684
2023-12-24 22:59:00+00:00,329.2364,4.1,11.22,47.84626,-54.09684
2023-12-24 23:09:00+00:00,325.6863,4.1,11.22,47.84626,-54.09684
2023-12-24 23:19:00+00:00,318.3747,4.1,11.22,47.84626,-54.09684
2023-12-24 23:29:00+00:00,316.7646,4.1,11.22,47.84626,-54.09684
2023-12-24 23:39:00+00:00,313.8447,4.1,11.22,47.84626,-54.09684
2023-12-24 23:49:00+00:00,305.583,4.1,11.22,47.84626,-54.09684
2023-12-24 23:59:00+00:00,298.3247,4.01,11.22,47.84626,-54.09684
